Theta_e
311 311 311 311 312 312 313 314 315 318 321 320 319 322 328 334 338 332 327 327 327 331 337 340 338 335 333 329 326 327 328 328 328 328 328 330 330 331 332 330 331 331 329 330 331 331 329 329 329 328 328 329 329 333 334 332 334 334 328 326 328 334 330 317 321 341 347 339 339 335 331 329 322 323 327 323 323 325 320 324 333 325 319 329 339 334 344
311 311 311 311 311 312 313 313 315 318 320 319 319 326 331 329 332 336 328 323 328 332 331 331 333 333 330 325 324 325 325 326 326 326 328 330 329 330 331 330 330 329 328 330 329 329 328 328 332 331 330 331 331 333 333 332 336 339 339 338 329 327 329 322 319 328 337 338 337 333 334 333 324 325 330 325 327 329 324 329 334 324 318 328 335 332 339
311 311 310 311 311 312 313 313 316 319 320 319 320 325 330 330 332 335 327 322 326 330 326 327 330 330 327 325 326 327 326 326 325 326 327 328 329 331 330 328 328 329 328 329 329 328 328 329 332 334 333 333 332 333 332 332 337 342 346 344 333 327 334 331 321 316 318 322 324 324 328 330 326 328 328 326 328 325 321 323 321 317 320 328 331 331 338
310 310 309 310 311 311 313 313 315 320 319 318 319 322 329 332 330 330 328 323 325 326 325 327 330 330 328 327 328 328 326 327 326 326 328 326 327 329 329 327 328 329 329 328 329 331 333 333 333 336 334 332 332 332 332 331 336 343 346 340 336 334 336 344 343 328 321 328 336 339 331 322 320 323 326 328 328 328 327 322 317 321 326 325 329 333 336
310 310 309 309 310 311 313 313 314 319 319 316 320 324 328 331 330 327 327 328 328 328 328 328 329 331 329 327 329 329 328 328 326 326 327 326 325 327 327 326 326 327 328 329 328 332 335 335 334 334 333 332 331 330 331 333 336 341 339 334 337 334 327 338 349 335 329 339 342 337 329 322 320 321 322 326 328 330 326 317 321 333 324 318 332 341 333
310 310 308 308 309 310 312 313 313 317 318 316 321 326 327 328 329 325 324 330 332 330 330 330 328 330 331 329 328 328 328 326 326 327 326 325 325 327 326 325 324 325 327 328 329 333 335 335 334 334 332 331 331 330 331 332 334 335 331 331 336 330 324 329 332 327 331 335 329 327 328 324 323 323 323 324 325 325 322 320 330 336 320 318 340 346 335
310 310 308 308 308 309 311 314 314 316 318 316 319 324 325 325 327 326 324 328 330 329 329 329 329 332 335 333 329 326 326 326 325 325 326 325 325 325 326 325 323 324 326 328 332 334 332 330 332 333 331 331 332 331 332 332 331 329 330 331 333 330 331 335 327 322 327 329 325 327 327 323 324 325 323 325 327 324 321 324 332 334 328 332 345 343 340
310 310 308 307 308 308 310 314 315 315 316 317 317 319 321 323 325 326 325 327 330 329 328 328 330 332 332 331 328 325 325 325 323 324 326 326 325 324 325 325 324 323 325 328 330 330 328 327 329 328 329 331 332 332 333 331 328 328 330 332 332 331 334 339 331 323 326 332 329 326 325 323 322 322 325 326 324 325 332 338 343 345 343 342 342 340 341
309 309 309 307 307 308 308 311 315 315 316 318 318 317 317 318 320 321 325 335 338 332 327 326 329 330 328 328 327 325 324 323 322 323 324 323 324 325 325 326 325 325 325 326 326 325 325 326 327 325 327 330 330 330 332 329 328 330 330 330 333 332 332 335 331 323 325 330 326 324 327 325 320 320 326 327 322 327 339 348 350 350 347 342 334 333 339
309 309 309 307 307 308 308 309 313 316 317 318 318 317 316 316 319 319 324 337 340 330 326 327 328 328 326 325 324 323 323 322 321 324 325 322 322 324 324 325 326 327 327 326 324 324 323 324 326 326 326 328 328 328 329 328 328 331 330 330 333 334 332 333 330 325 325 326 324 325 321 318 322 328 326 325 330 339 348 352 349 351 353 347 336 335 341
309 309 309 308 307 307 308 308 311 315 316 316 316 316 315 315 319 321 325 338 341 329 326 328 327 326 323 322 322 322 321 322 322 324 325 323 321 323 324 324 327 329 327 324 323 323 323 324 326 326 325 327 328 327 326 326 327 330 332 333 335 335 334 334 332 326 323 325 329 327 317 316 329 341 332 329 341 350 353 351 348 349 353 355 354 351 350
309 309 309 308 307 307 307 307 310 314 317 316 315 316 315 314 318 321 326 337 341 330 326 328 325 323 322 321 321 322 322 322 322 322 324 323 321 322 323 323 325 327 324 322 323 323 324 325 325 326 328 328 328 327 327 328 328 330 331 333 334 336 336 336 334 328 325 330 328 320 320 332 342 341 336 339 345 349 351 349 349 350 347 353 363 359 349
309 309 309 308 308 307 307 307 309 313 316 316 316 315 314 313 318 320 322 331 338 331 326 327 323 320 322 321 319 321 322 321 321 322 322 321 321 322 322 322 323 323 322 321 322 324 329 331 330 331 333 329 329 332 331 329 330 331 330 330 333 338 336 334 335 332 329 330 325 320 331 350 348 337 338 342 342 345 350 349 348 350 348 350 360 360 354
308 309 309 308 308 307 307 307 308 311 315 316 316 314 314 313 316 318 319 327 336 330 324 326 324 320 321 321 320 321 321 320 321 322 321 321 322 321 321 320 321 321 320 322 327 330 334 333 333 335 335 332 336 341 336 329 331 334 332 331 331 335 338 336 335 333 329 326 326 330 334 337 339 340 341 341 340 342 350 350 348 349 349 347 352 359 363
308 308 308 309 308 307 307 307 307 309 313 315 315 314 313 313 314 316 317 321 330 331 326 324 323 320 321 321 320 322 323 322 323 323 321 321 320 320 320 319 319 320 319 322 330 333 332 331 331 333 335 335 336 338 335 331 334 335 335 337 335 334 338 338 333 334 333 325 326 330 326 328 342 347 339 338 338 337 348 356 352 350 350 345 347 353 358
308 308 308 308 308 308 308 307 306 307 310 314 316 314 314 314 313 314 316 317 325 332 327 320 317 318 321 322 321 323 324 324 324 325 326 324 321 319 319 318 318 320 321 326 331 332 331 332 329 330 334 334 331 332 335 335 337 336 334 338 339 338 344 347 337 333 332 326 324 327 326 333 347 346 338 339 338 336 347 357 353 354 353 346 345 347 350
308 308 308 308 308 308 308 307 306 307 307 311 315 315 314 314 313 313 316 317 321 327 325 317 314 319 324 324 324 325 324 323 324 326 326 324 321 319 319 318 320 321 323 330 334 334 334 334 331 331 335 334 331 336 340 339 338 339 337 339 344 348 356 356 340 332 334 333 329 327 329 337 344 340 337 338 336 333 335 341 349 361 357 347 345 347 349
308 308 308 308 308 308 308 307 306 306 306 309 314 315 314 314 313 313 315 316 319 325 324 316 313 319 322 321 321 323 321 322 323 325 325 325 323 320 318 319 322 321 324 330 333 334 335 334 332 334 337 335 335 340 342 340 340 342 342 344 348 350 353 352 343 338 342 339 331 329 336 343 342 338 337 337 340 343 340 339 350 361 355 348 348 348 347
309 308 308 308 307 308 308 307 307 306 306 308 312 313 313 313 313 313 314 315 317 321 320 314 313 317 317 316 319 321 319 320 322 324 324 326 326 321 319 322 323 322 325 331 331 331 332 333 333 335 337 338 339 339 338 339 340 339 340 345 348 346 346 348 347 344 345 343 336 334 341 345 339 337 339 341 346 354 353 351 355 354 350 351 351 348 348
309 309 308 307 307 307 307 307 307 307 306 306 308 310 312 312 312 312 313 314 314 315 315 312 313 316 315 315 318 319 319 321 323 322 322 325 325 324 326 328 325 322 326 331 330 329 331 333 334 335 336 338 339 338 337 339 340 338 338 343 346 344 344 348 347 344 345 345 340 336 339 342 338 339 346 347 348 350 350 351 353 350 351 355 353 351 349
309 309 308 307 307 307 307 307 307 306 305 305 306 307 309 311 312 312 312 312 312 315 318 315 313 315 314 314 315 316 317 319 320 321 323 324 324 323 326 328 326 322 324 328 329 328 330 331 331 332 333 334 337 338 337 339 341 340 339 343 344 342 344 350 349 344 344 347 348 346 345 343 338 340 345 344 342 343 345 349 351 349 350 355 355 352 350
310 310 309 308 307 307 307 307 306 305 305 305 306 306 307 310 312 312 312 312 312 314 317 315 313 314 314 315 316 315 315 316 316 317 319 322 325 325 323 325 325 322 324 328 329 329 329 329 329 330 331 333 335 335 335 338 342 342 339 341 342 342 344 347 346 345 345 348 351 352 349 342 338 339 341 340 339 339 340 344 347 345 347 353 353 351 350
310 310 309 308 307 306 307 307 306 305 304 304 305 305 306 308 310 311 311 312 312 314 314 313 314 316 316 316 316 315 315 316 317 317 316 317 324 328 326 324 322 322 326 330 329 328 329 328 328 329 330 332 332 333 335 339 341 340 338 338 339 341 342 343 344 344 343 343 343 343 343 342 340 338 337 338 341 342 339 339 342 342 344 349 351 350 350
309 309 309 309 308 307 307 306 305 305 305 304 305 305 305 307 309 310 310 312 313 315 316 315 316 319 318 315 314 313 314 316 317 318 317 317 320 326 327 323 319 322 328 328 325 325 327 327 328 328 329 330 330 331 335 337 337 337 338 339 340 339 338 341 345 342 339 342 346 346 345 344 343 341 339 338 340 342 342 341 342 341 342 345 349 349 349
309 309 309 309 308 307 307 306 305 305 304 304 305 305 305 307 309 310 311 312 313 315 318 318 318 317 316 314 313 313 315 316 316 317 318 317 317 320 323 321 318 320 325 324 323 325 327 327 328 327 327 329 331 332 334 337 336 335 335 337 338 336 333 338 345 343 340 344 347 346 344 343 343 345 346 342 338 339 341 342 341 339 338 342 348 349 349
309 309 309 308 308 307 307 306 306 305 304 304 304 304 305 308 310 310 311 312 313 314 317 319 319 316 313 313 313 313 314 316 316 316 317 318 318 317 318 318 318 318 320 322 323 325 326 326 327 327 326 328 329 330 333 336 334 333 332 333 333 333 334 338 343 343 341 342 342 341 342 344 345 345 344 343 341 339 340 339 338 337 337 340 347 350 348
309 309 309 309 308 308 307 307 305 305 305 304 304 305 307 309 311 311 311 312 315 317 317 317 317 314 313 313 314 314 314 315 315 316 316 317 318 317 316 318 321 322 321 322 323 324 325 326 326 326 326 326 326 327 330 332 331 331 332 332 332 335 339 340 339 339 340 344 346 343 339 343 347 344 340 339 338 337 338 339 339 339 340 340 343 348 349
309 309 309 309 309 308 307 307 306 305 305 304 305 308 310 311 312 312 312 312 314 317 317 316 314 314 314 314 313 313 315 315 316 317 317 317 318 318 316 318 323 326 324 325 326 325 325 327 327 325 325 326 328 329 330 331 331 331 332 333 335 338 340 339 340 340 340 343 345 344 340 343 347 344 341 340 338 337 339 340 339 341 343 343 342 344 347
308 308 309 309 309 308 307 306 306 305 305 305 307 311 313 313 312 313 313 313 313 314 315 314 314 315 316 315 313 313 315 317 317 318 319 318 318 317 316 317 322 325 325 326 327 326 326 327 326 324 324 326 329 329 330 330 331 331 331 334 339 340 337 336 339 340 338 339 341 342 342 343 343 342 343 343 340 338 339 340 340 341 341 342 343 343 343
308 308 309 308 308 308 307 306 306 306 305 305 307 311 315 315 313 312 313 313 312 312 314 314 313 313 314 313 313 314 316 316 317 318 319 319 318 317 317 319 322 324 324 326 327 327 327 327 326 325 324 324 327 330 330 329 329 330 328 331 338 340 336 335 337 337 336 337 338 339 340 340 339 338 338 337 337 336 336 337 339 340 339 340 345 346 343
308 308 308 308 308 307 307 306 306 306 305 305 308 314 319 318 315 313 313 312 311 311 313 314 313 313 313 314 314 315 316 316 317 318 318 319 319 318 317 319 322 322 324 327 328 327 326 326 327 327 326 325 328 331 330 328 329 328 325 326 334 338 337 336 337 336 334 334 334 334 335 336 336 334 334 334 334 333 334 336 335 335 339 342 343 343 341
308 308 308 308 307 306 306 306 306 305 305 305 307 311 314 314 312 312 312 312 310 310 312 314 314 315 316 316 314 314 316 316 318 321 322 323 323 321 320 320 321 323 325 327 327 327 327 328 327 326 326 329 332 333 331 329 328 327 325 326 330 333 334 335 335 334 333 332 331 331 333 334 333 333 333 333 331 330 334 337 332 328 332 336 338 340 340
308 308 308 307 307 306 306 306 306 305 306 306 307 309 311 312 313 311 310 310 309 308 311 314 316 316 317 317 316 316 317 320 324 326 328 327 324 322 325 326 324 323 324 325 326 329 329 327 325 325 327 330 332 334 333 331 328 325 325 325 326 328 330 332 333 335 336 334 330 329 331 332 332 331 331 332 331 330 331 331 328 326 329 333 338 343 342
308 308 307 307 307 306 306 306 306 306 307 308 310 312 313 315 314 312 310 309 309 310 312 315 316 317 317 317 319 320 318 321 328 331 331 330 326 323 328 331 328 325 325 324 325 328 328 326 327 329 330 331 332 332 332 331 328 327 328 329 331 332 332 333 335 337 337 335 332 331 332 332 332 331 332 334 334 330 329 328 329 330 335 338 342 344 344
308 308 307 307 306 306 307 307 307 308 308 309 312 314 315 315 314 313 312 311 312 314 315 315 316 318 318 318 321 321 316 319 330 333 330 329 328 327 329 331 330 329 328 325 325 327 328 328 329 330 331 331 332 333 333 333 334 335 334 335 336 335 333 334 335 334 333 332 333 333 332 332 333 333 334 336 336 334 335 338 339 337 339 343 346 347 348
308 308 307 307 307 308 309 310 310 310 311 312 314 316 316 314 312 311 311 311 313 315 316 315 316 317 318 318 320 319 316 322 331 334 330 329 332 333 332 330 331 332 329 325 327 330 331 330 330 330 330 331 332 334 335 336 336 337 337 336 335 334 333 333 333 332 331 332 333 333 333 332 332 334 334 336 336 334 335 341 344 343 341 345 348 350 352
308 307 307 308 309 310 311 312 313 313 314 314 315 315 314 313 312 312 311 312 313 313 314 315 316 316 316 318 320 319 318 323 330 332 332 332 332 333 332 331 331 333 332 331 332 333 333 333 331 331 331 331 331 333 334 333 332 334 334 334 334 334 334 333 332 331 331 331 331 332 333 331 332 334 335 335 336 334 333 337 340 340 340 343 347 349 346
308 308 308 309 311 314 315 315 315 314 314 312 313 314 314 312 313 314 313 313 314 314 313 314 316 315 314 317 319 318 319 323 325 327 330 330 328 329 332 332 330 329 331 333 332 330 332 335 333 331 333 333 333 333 333 331 330 332 332 332 333 333 332 332 332 331 332 332 331 331 332 332 332 333 333 334 335 334 332 333 335 339 343 345 345 342 341
308 309 310 311 313 315 316 316 315 314 313 312 313 315 315 313 315 317 316 315 316 316 315 315 316 315 316 318 319 317 317 321 324 327 330 330 327 328 332 332 328 326 330 333 330 328 332 335 334 333 335 335 334 334 334 332 331 331 330 330 331 331 330 330 330 329 330 331 330 330 331 331 331 331 332 333 334 333 332 333 335 339 342 342 338 337 340
309 311 312 313 314 314 314 314 313 312 313 314 314 314 315 316 318 320 318 318 319 319 317 316 316 315 315 318 320 319 319 322 326 329 330 329 326 326 329 331 328 327 330 332 330 329 332 334 333 333 334 334 333 333 334 333 332 331 330 330 329 329 329 329 328 327 328 329 329 329 330 330 330 331 331 331 332 333 331 332 335 336 336 337 337 338 340
311 312 312 313 312 311 311 312 312 312 314 316 317 317 318 319 320 320 320 322 323 321 318 318 321 321 320 319 320 321 323 325 328 330 330 328 326 327 330 330 327 328 331 332 330 330 332 333 332 334 335 335 334 334 333 333 332 331 330 330 329 328 328 328 327 327 328 329 329 329 328 328 329 330 330 330 332 333 332 333 334 334 333 335 338 338 338
311 311 311 311 310 310 311 312 313 314 317 317 318 319 320 319 320 320 321 322 323 322 321 322 327 329 327 323 322 323 324 326 329 331 332 329 326 327 330 330 328 328 332 331 330 331 332 331 332 335 337 336 335 333 333 333 332 330 329 330 329 328 328 328 329 328 328 329 329 329 328 328 328 329 329 330 331 332 333 335 335 334 334 335 337 337 338
311 310 310 311 311 312 314 315 316 317 319 319 320 321 321 319 319 321 322 323 326 327 326 326 328 327 325 324 324 325 324 325 328 331 333 330 327 327 330 332 331 331 331 331 330 331 331 330 332 335 335 333 331 331 332 332 331 329 328 328 328 327 327 328 329 329 328 328 328 328 328 328 328 329 330 331 331 333 334 335 335 335 335 336 337 337 338
310 310 311 312 314 315 317 319 318 318 319 320 321 322 322 321 323 325 325 327 331 332 329 328 328 327 326 326 327 327 326 327 328 329 330 330 329 330 331 333 333 332 331 331 331 331 331 332 333 332 329 328 330 331 331 332 331 329 328 327 327 327 327 328 329 329 329 328 328 328 329 328 328 329 330 331 332 334 334 334 335 337 337 337 336 337 337
311 312 313 314 316 317 318 320 320 319 319 319 319 320 321 322 323 325 325 327 330 330 328 327 326 325 326 326 326 327 329 328 326 326 328 330 331 331 332 333 333 332 331 332 332 332 331 333 334 331 328 328 330 331 331 330 330 329 329 328 329 329 329 329 329 329 329 329 328 328 329 328 328 328 329 330 333 334 334 335 337 338 337 337 337 337 337
312 314 314 314 315 316 318 319 319 318 319 319 320 321 322 321 320 322 322 323 324 324 324 323 323 323 325 325 324 326 329 329 328 328 329 330 330 330 330 331 331 330 330 332 334 334 333 332 332 332 329 327 328 330 330 330 330 330 329 329 329 330 330 330 329 329 328 328 327 327 327 327 327 327 328 329 332 334 335 336 337 338 338 338 337 336 336
312 313 313 314 315 315 315 315 317 317 318 319 320 319 319 318 319 321 321 321 321 323 324 324 324 324 324 323 322 325 328 329 329 329 329 329 329 330 329 329 330 330 329 330 332 334 334 333 333 333 332 329 329 330 331 330 330 331 331 330 330 330 330 330 330 330 328 327 327 328 327 326 326 327 327 327 330 334 336 336 336 336 337 337 337 336 335
312 312 313 314 315 315 315 315 316 316 318 318 317 316 316 318 320 323 323 323 323 324 325 324 323 324 324 323 323 325 326 327 328 329 329 329 330 330 329 330 330 329 328 330 333 335 335 336 336 335 333 331 331 332 333 332 332 331 331 331 331 331 331 331 330 330 329 328 328 328 327 326 327 327 327 327 329 333 335 336 336 336 336 337 338 336 334
310 311 313 314 314 315 316 316 316 316 316 316 315 317 318 319 320 322 324 325 325 325 323 322 321 323 324 323 322 323 324 325 325 327 327 328 330 330 331 331 332 330 329 332 334 334 334 337 338 335 334 334 334 334 334 333 332 331 331 330 329 329 330 330 330 330 329 328 328 327 327 327 326 327 327 328 329 332 335 336 335 335 335 336 338 338 337
310 310 312 313 314 315 316 316 316 317 317 316 316 317 318 319 320 321 321 322 323 323 323 324 323 322 323 322 322 323 323 323 322 324 326 328 329 330 330 330 332 334 335 334 332 331 332 337 338 337 336 337 336 334 334 334 332 331 331 330 328 327 327 328 329 329 329 329 329 328 328 327 326 326 328 328 328 330 334 335 333 331 333 334 335 336 337
310 310 311 312 313 314 315 315 315 316 315 314 314 315 316 318 320 320 318 319 321 322 323 324 323 322 322 323 322 321 321 321 321 324 327 329 328 329 331 334 337 339 337 334 328 326 330 336 339 339 337 338 337 336 334 333 331 330 329 328 328 327 327 327 328 329 329 329 330 330 329 327 327 327 329 329 328 330 333 334 331 330 332 333 333 333 335
309 310 311 312 312 312 313 313 313 314 313 313 314 315 316 318 320 319 317 318 320 320 320 321 322 321 321 321 321 320 321 322 323 324 326 328 329 329 332 336 338 337 335 332 329 328 331 338 342 341 339 338 337 336 334 332 331 330 328 328 328 328 327 326 327 328 329 330 330 329 329 329 329 329 329 329 328 329 333 333 331 330 331 332 332 332 334
Wind_Speed
33 34 35 36 38 39 40 42 43 44 42 37 30 15 3 3 2 5 13 9 2 4 4 4 2 2 4 3 4 5 5 5 7 9 8 6 5 4 2 2 2 2 3 4 3 4 3 3 2 3 5 5 8 15 18 15 13 9 3 4 5 3 3 3 3 4 3 5 5 5 4 2 2 4 3 3 3 4 5 5 3 3 2 2 4 1 5
33 33 34 35 37 38 38 40 40 39 38 35 24 8 1 2 4 5 16 18 5 5 3 4 4 4 4 5 7 6 5 5 7 8 8 8 6 4 5 6 5 5 7 6 3 3 3 2 5 5 4 5 10 17 19 14 10 7 6 6 4 4 2 3 1 4 5 6 6 5 5 2 2 5 3 4 5 5 3 1 3 3 3 5 5 2 6
32 32 33 34 35 37 37 38 37 33 33 31 19 4 1 3 1 4 11 17 9 4 1 2 4 6 6 6 7 7 5 4 6 7 8 9 7 4 6 10 9 9 12 11 6 4 3 2 4 5 5 5 7 14 18 14 10 10 13 15 8 4 1 4 5 2 2 1 1 2 3 3 2 4 4 2 5 6 3 1 4 1 4 7 7 4 6
32 31 32 33 34 36 36 38 35 29 28 28 16 4 1 2 3 3 7 9 7 1 2 4 4 5 6 5 5 6 6 5 7 8 8 10 9 4 7 11 11 10 14 12 9 8 5 2 3 4 6 5 3 9 13 11 13 17 21 21 10 1 2 1 7 7 6 7 6 5 1 2 5 6 7 6 5 4 2 4 3 3 4 5 5 7 6
31 30 30 32 33 34 35 37 35 28 25 24 12 4 4 2 1 4 3 4 5 3 4 6 6 6 6 4 3 6 8 7 8 8 6 8 10 5 7 12 11 10 13 10 8 10 7 4 5 5 6 6 5 7 8 8 16 21 19 16 9 2 4 4 4 5 7 9 8 5 1 2 5 6 7 7 7 4 4 2 5 5 6 4 6 10 13
30 29 29 31 32 33 34 35 35 29 24 22 12 2 4 3 0 2 2 2 2 3 5 7 7 9 7 3 4 8 10 10 8 7 5 7 10 7 5 12 13 9 10 8 7 10 8 6 7 6 7 9 9 9 7 6 15 19 13 10 7 2 4 4 3 5 6 6 5 3 1 2 3 4 6 7 8 7 4 4 6 7 6 5 7 12 14
28 27 28 29 30 32 32 33 35 30 23 24 21 7 3 3 1 3 3 1 2 3 6 8 7 8 6 4 6 8 10 10 8 7 6 6 9 9 7 11 12 10 8 6 4 7 8 8 8 7 7 9 8 7 6 5 11 14 10 7 7 3 3 7 10 9 7 5 1 3 2 3 4 6 7 7 9 9 7 5 2 6 5 5 12 15 13
25 26 26 28 29 30 31 31 34 32 24 23 22 11 5 3 2 4 3 3 3 4 6 7 4 5 6 5 6 8 9 11 8 6 6 6 7 8 9 11 11 9 8 5 4 7 8 9 9 8 8 7 4 4 4 5 9 10 8 6 6 4 5 8 10 8 7 7 4 3 3 2 4 8 8 8 10 8 7 7 5 2 4 1 11 12 7
23 25 25 26 27 29 29 30 32 32 27 20 13 8 10 5 3 4 2 3 4 3 5 6 4 4 6 5 6 7 8 10 9 5 4 6 7 8 10 11 10 7 6 7 10 11 10 9 9 8 7 5 2 2 2 6 10 8 6 5 5 5 5 6 7 6 6 7 6 5 5 4 5 7 8 8 7 5 4 4 5 4 4 3 8 8 7
22 24 24 25 26 27 27 28 29 30 29 21 9 7 15 10 5 5 2 2 4 4 4 5 4 3 5 6 6 7 7 9 8 5 4 6 8 9 10 10 8 6 6 10 13 14 12 9 8 6 6 5 4 4 4 4 5 5 5 5 2 2 4 5 4 5 6 9 9 6 5 6 4 4 5 4 0 4 5 5 6 5 1 5 6 6 7
21 22 23 24 24 25 25 26 27 27 27 23 12 9 16 12 4 4 3 0 3 4 3 4 5 4 6 8 7 7 8 9 8 5 4 5 8 10 10 9 6 4 6 10 13 14 12 9 7 6 6 7 6 6 7 6 5 5 3 3 3 1 3 4 2 2 7 11 9 5 3 3 5 4 2 1 5 9 8 4 6 7 3 2 4 6 6
20 21 22 23 23 23 24 24 24 23 22 21 15 14 19 15 4 2 3 2 3 4 4 3 4 5 7 8 7 7 8 9 8 6 4 5 8 9 8 8 7 5 8 13 14 13 10 6 5 6 6 6 8 9 10 11 8 6 7 7 5 4 2 3 3 2 5 8 6 2 3 7 6 1 8 7 7 11 11 6 7 9 8 6 6 6 6
19 20 21 22 21 21 22 22 22 20 18 17 17 18 21 17 7 1 3 2 2 3 3 4 5 7 8 7 7 8 8 8 8 7 6 6 8 9 6 7 6 7 10 13 13 11 7 5 5 5 5 6 7 7 8 10 10 8 6 10 9 5 3 3 2 3 3 4 3 2 6 8 3 6 9 6 3 4 6 7 10 11 9 7 6 6 2
18 19 20 21 20 20 20 20 20 18 15 14 16 18 21 19 10 2 2 2 1 4 3 3 6 8 8 8 7 6 6 7 8 7 6 6 7 8 6 6 8 10 9 9 8 5 4 4 5 4 4 6 5 4 7 8 8 9 7 4 7 6 5 3 2 3 2 2 4 3 4 7 4 4 5 2 1 3 1 5 5 9 9 7 6 5 4
17 17 18 19 20 19 19 19 19 17 14 12 12 16 20 21 14 5 1 2 1 3 1 2 5 7 7 6 6 5 4 5 5 5 5 4 5 6 6 8 13 13 8 5 3 2 2 2 3 4 4 4 3 3 5 6 4 5 9 8 4 2 5 6 4 3 2 1 4 3 2 5 4 2 6 5 4 5 1 7 3 8 9 8 6 7 7
16 17 17 18 19 19 18 17 17 17 14 11 10 13 17 19 18 11 3 1 1 1 1 3 4 5 4 3 5 5 3 4 4 4 4 5 5 6 7 10 14 12 7 3 1 1 2 1 1 2 2 2 2 3 2 4 5 4 6 9 9 5 0 4 4 2 2 3 2 2 2 5 3 7 11 12 10 7 3 7 3 6 9 9 7 9 9
15 15 16 17 17 18 18 17 16 17 16 11 8 10 14 16 18 14 4 1 1 3 2 4 5 3 2 3 4 3 2 3 3 2 2 4 5 6 8 9 10 9 7 4 2 2 2 1 1 1 2 3 2 2 1 3 5 6 7 9 9 7 4 3 3 2 2 4 2 2 2 3 7 12 13 15 14 7 3 4 3 5 7 8 7 8 8
13 14 15 16 16 16 17 17 16 16 16 12 8 10 14 16 17 13 4 1 3 3 3 6 6 2 1 3 3 3 2 3 3 2 3 3 3 4 7 6 5 6 7 5 3 3 3 2 2 1 2 4 3 1 2 3 3 5 7 6 5 4 3 3 3 1 1 4 3 2 2 3 8 13 14 14 12 3 5 4 5 3 5 6 6 7 7
11 12 13 14 14 15 16 17 17 15 16 13 7 7 11 15 17 15 8 2 1 2 7 10 6 3 2 5 4 3 3 3 2 1 2 3 3 4 5 4 3 4 4 3 3 3 2 2 3 1 1 3 3 1 2 3 2 4 4 3 3 3 3 3 3 2 2 1 2 1 2 3 8 13 12 9 5 3 2 3 4 2 2 4 6 7 6
10 11 12 13 13 13 14 16 17 15 16 16 10 5 5 8 12 14 10 4 1 4 10 9 5 3 3 5 2 4 4 4 3 1 1 3 3 3 4 4 3 4 4 3 3 3 2 2 3 2 2 2 2 0 1 3 3 3 2 2 2 1 2 3 2 1 2 1 2 0 3 4 10 12 9 8 5 1 4 4 3 2 1 4 6 6 6
8 9 11 12 12 12 13 14 15 16 16 16 14 8 5 5 7 9 10 6 2 2 5 5 5 8 11 11 12 11 7 6 6 3 1 3 3 2 2 2 3 2 2 3 3 2 2 2 2 2 2 2 2 1 2 4 4 4 2 1 0 0 1 1 2 1 1 1 1 2 5 4 7 6 3 3 4 4 4 2 2 4 4 4 4 5 6
7 8 10 11 11 11 12 12 14 17 17 16 15 11 8 6 6 8 11 10 5 8 12 16 18 23 24 21 18 16 16 18 18 12 4 3 3 1 2 2 2 1 1 1 2 1 2 1 1 2 2 2 2 3 3 2 2 4 3 2 0 2 2 3 2 2 1 3 4 5 3 3 4 4 3 3 6 6 6 3 2 4 5 4 4 5 6
7 7 9 10 10 11 11 12 14 17 17 15 15 13 12 11 8 10 13 10 7 11 18 20 20 20 17 13 15 17 17 18 23 21 12 4 3 2 1 1 1 1 0 1 2 1 1 1 1 1 2 2 2 3 3 2 2 3 3 2 3 2 2 3 2 2 3 3 5 5 3 3 4 4 4 4 5 5 6 6 5 5 5 5 5 6 6
7 7 7 9 10 10 10 12 15 16 16 15 13 12 14 12 8 12 14 7 3 6 8 7 6 5 4 13 23 24 16 11 16 21 17 10 4 3 2 2 2 0 1 2 2 1 0 1 1 1 2 2 2 2 2 2 2 2 2 3 4 3 2 1 1 1 1 3 4 4 2 2 4 5 5 5 5 5 5 4 4 5 5 5 5 6 6
8 7 7 8 9 10 10 13 15 15 15 15 12 13 15 10 5 8 10 5 2 3 3 3 4 4 9 22 28 20 12 11 11 13 16 16 13 8 4 4 3 2 3 3 1 2 1 1 0 1 3 3 2 2 1 2 2 1 1 3 3 2 2 1 2 2 2 4 6 5 5 6 5 3 3 4 4 6 7 6 5 5 4 3 3 4 5
9 7 7 7 9 10 11 13 15 15 15 15 13 13 15 9 2 4 7 6 3 2 2 3 6 11 20 27 25 18 15 16 14 11 13 18 21 18 11 5 3 3 3 2 2 1 1 1 1 2 2 2 2 2 2 3 3 2 3 4 3 2 2 2 2 2 2 5 6 4 5 6 3 2 2 4 3 4 7 8 8 7 6 4 3 3 4
10 8 7 7 9 11 12 13 14 15 15 15 14 13 10 5 1 1 5 6 2 1 2 2 6 16 23 22 21 21 21 19 18 16 15 15 21 22 15 7 4 2 2 1 1 1 2 0 1 3 3 2 2 3 3 4 3 3 4 4 2 2 3 3 2 3 4 5 4 2 2 5 5 3 4 5 4 4 5 6 7 7 6 4 4 4 4
11 8 7 7 8 11 12 12 13 14 15 16 15 10 4 1 1 1 5 6 3 2 2 3 7 16 19 17 20 24 22 20 19 17 16 14 20 24 16 8 5 3 3 2 0 1 2 2 2 2 2 1 2 3 3 3 2 3 4 4 3 3 4 3 3 3 5 6 6 3 2 4 6 6 7 6 5 5 6 6 5 6 4 3 4 5 5
11 8 7 7 9 11 11 12 13 14 15 17 13 5 4 4 4 3 1 2 2 2 3 4 6 8 9 14 22 24 22 21 20 17 17 14 16 19 14 8 6 4 3 3 2 2 2 3 2 3 2 2 1 2 2 2 3 4 5 5 4 3 3 4 5 4 5 7 7 4 4 5 7 7 8 7 6 6 7 6 5 5 3 1 1 4 5
9 8 7 7 9 11 11 12 12 13 15 16 11 4 3 3 3 4 4 2 1 2 1 2 4 5 6 10 15 18 20 23 21 17 16 12 12 15 13 9 6 3 3 2 2 3 3 2 2 3 3 4 2 2 2 2 4 5 5 6 5 4 5 6 6 5 5 7 6 5 6 7 8 6 7 8 7 6 6 6 6 6 5 5 6 5 5
7 7 7 7 9 11 12 12 12 12 13 12 7 2 1 0 2 5 5 1 4 5 1 2 3 5 5 5 7 12 20 24 20 16 14 10 9 12 14 10 5 4 4 2 2 3 2 2 2 3 2 3 3 2 2 2 4 5 6 6 6 5 6 6 5 6 7 7 6 5 5 6 6 5 5 7 8 7 6 5 7 7 7 5 5 5 6
7 6 7 8 10 11 12 12 12 12 12 11 8 6 5 5 6 6 5 3 6 5 1 2 3 3 3 4 8 13 17 17 12 9 6 2 1 3 7 6 4 5 5 3 2 2 3 3 3 3 3 3 3 1 2 3 5 8 9 8 7 6 7 7 7 7 7 6 4 5 6 5 4 4 5 7 9 9 7 6 8 8 5 5 6 7 8
7 6 7 9 10 11 11 11 11 12 14 14 13 10 6 5 6 7 7 8 7 4 2 2 3 3 3 5 9 10 9 7 4 3 4 2 2 1 2 2 1 2 3 4 3 2 2 3 3 3 2 2 2 1 3 4 7 10 10 9 7 7 7 7 7 6 6 4 2 2 4 5 5 5 6 7 8 8 8 7 7 6 5 5 6 6 6
7 7 8 9 10 10 10 10 12 13 12 11 8 5 2 3 4 4 7 7 4 3 3 2 1 3 4 4 5 7 8 6 3 2 3 3 2 1 1 2 2 0 3 3 2 2 2 2 3 2 1 1 1 2 3 5 7 8 8 7 5 5 5 6 5 4 5 5 4 4 5 6 5 6 6 6 7 9 9 7 5 4 4 5 5 5 4
7 8 9 9 10 10 10 11 11 10 7 7 6 4 2 3 4 4 5 6 2 0 2 1 1 2 4 3 3 6 9 7 3 1 1 2 3 2 0 1 1 1 3 2 2 2 3 2 2 3 2 1 1 3 4 5 5 5 5 5 4 4 4 5 5 6 6 6 6 6 6 5 6 6 6 6 7 7 7 6 3 0 1 3 4 4 4
7 8 9 9 9 9 8 7 6 5 4 5 5 5 4 4 3 3 5 5 3 2 1 1 1 2 2 2 3 5 8 5 2 2 1 1 3 2 1 1 1 3 2 1 2 3 3 2 2 2 2 2 3 4 3 2 4 5 5 5 5 4 4 6 7 8 9 8 8 8 7 6 7 6 5 5 6 6 6 6 4 1 1 3 5 4 4
7 8 9 8 6 5 4 3 3 3 4 6 7 8 7 3 0 2 4 5 5 5 2 1 3 3 2 2 3 4 5 3 2 3 2 1 1 2 1 1 1 2 2 2 3 3 2 1 2 2 3 4 3 2 1 2 5 6 5 6 6 5 5 6 7 8 9 11 10 9 7 6 6 5 4 5 6 6 6 6 5 5 5 5 5 4 4
7 8 7 5 3 1 1 2 2 3 9 10 9 7 4 1 2 2 2 3 3 4 3 2 3 3 2 2 3 3 3 3 3 3 2 1 1 2 1 1 0 1 2 3 3 2 1 1 1 2 4 3 2 1 1 2 5 6 5 6 6 6 6 6 6 7 8 9 9 8 7 7 7 6 4 5 5 6 6 6 7 7 5 4 5 5 5
5 5 4 2 1 1 1 1 3 8 11 9 4 2 1 2 2 1 1 2 2 2 2 3 4 3 4 4 4 4 4 3 2 3 2 1 1 1 0 1 1 0 1 3 2 1 1 1 2 2 2 3 3 3 4 4 4 5 6 6 6 6 6 6 6 8 8 9 9 9 7 7 8 7 6 5 6 6 6 6 6 6 5 4 5 5 5
4 4 3 1 2 4 7 8 10 11 8 3 2 1 0 1 1 1 1 1 1 2 2 3 3 3 5 5 3 4 5 4 2 2 2 1 1 0 0 1 0 1 1 3 2 1 0 2 2 1 2 3 4 5 5 5 5 6 6 6 6 7 7 7 8 9 10 9 10 9 8 7 8 7 7 6 6 6 7 7 6 6 6 5 5 6 7
3 2 3 4 7 12 15 13 9 5 2 1 1 1 0 1 2 1 1 1 2 2 2 2 2 3 4 5 3 3 4 4 2 1 1 1 1 0 0 1 0 1 1 3 2 1 0 1 1 2 2 4 5 5 5 5 5 6 6 7 7 8 8 9 10 11 10 9 8 8 8 8 7 7 7 7 6 6 7 7 7 7 7 7 7 9 10
3 5 8 11 13 13 11 7 3 1 1 0 1 1 1 2 2 1 1 1 2 1 1 2 3 3 4 4 4 3 3 3 1 1 0 1 1 1 1 1 1 0 2 2 0 1 1 1 2 3 3 4 5 6 5 5 5 7 8 8 8 8 9 9 10 11 11 9 7 7 8 7 7 7 9 9 8 8 8 7 7 7 8 8 8 10 10
5 7 8 9 7 5 2 1 1 1 1 1 1 1 2 2 1 1 1 1 1 1 1 2 2 2 3 3 3 2 2 1 0 1 0 1 1 1 1 1 0 1 2 1 1 1 1 1 2 3 4 5 5 5 5 6 6 7 8 8 9 10 11 10 9 11 12 11 9 9 8 7 8 9 10 10 9 9 9 8 8 8 8 6 6 7 8
4 4 3 3 2 1 0 1 1 1 1 1 1 0 2 2 1 1 2 1 1 1 2 2 1 2 3 2 1 1 1 1 0 0 1 1 0 0 1 2 2 1 1 1 0 1 1 1 3 4 5 5 5 5 6 6 6 6 8 9 10 10 10 10 9 9 9 9 9 9 7 6 7 8 8 9 7 6 6 5 5 4 4 3 4 6 7
3 1 1 1 2 0 1 1 1 1 1 2 2 2 3 3 2 2 3 3 2 1 2 2 1 2 3 3 1 0 0 0 1 0 1 1 1 0 2 2 1 1 1 1 1 1 1 2 3 4 5 6 6 6 6 6 6 6 7 9 10 9 8 8 8 7 6 6 7 7 4 4 5 5 8 10 9 6 4 3 2 1 2 3 4 5 7
2 1 1 1 1 1 1 0 1 1 1 3 3 3 3 4 4 4 3 1 0 1 2 2 2 2 3 3 2 0 1 1 0 1 1 1 1 2 2 0 1 2 2 1 1 2 2 3 3 4 6 7 6 6 6 6 6 5 5 7 9 9 8 7 8 7 6 6 7 5 3 3 4 5 8 12 12 8 4 2 1 1 3 4 4 5 7
2 2 1 1 1 2 1 2 3 2 2 3 3 4 4 5 4 4 2 1 1 1 2 2 2 2 3 2 2 1 0 1 1 1 0 1 1 2 1 1 1 1 1 2 2 3 3 3 3 5 6 6 6 6 7 7 6 6 6 6 7 8 8 8 7 6 7 8 7 5 3 5 6 7 8 11 12 9 5 3 2 2 3 4 4 3 5
1 1 0 1 1 2 2 3 2 3 3 4 4 5 5 3 3 3 3 1 1 2 2 2 2 3 2 1 2 2 1 0 1 2 1 1 0 1 1 1 1 1 1 2 3 3 4 4 4 5 6 6 6 6 6 6 7 8 7 7 8 8 9 8 8 7 7 7 5 5 4 5 7 9 10 10 10 8 5 4 3 3 3 4 3 1 3
1 1 1 1 1 2 3 2 3 4 5 4 4 4 3 3 4 4 4 2 2 1 1 1 1 2 2 2 1 1 1 1 1 1 1 1 0 0 0 1 2 2 2 3 4 4 4 4 4 5 6 5 5 5 5 6 7 7 7 6 7 9 9 8 8 9 9 8 6 6 6 5 7 9 9 9 10 10 7 3 2 2 2 3 3 2 2
2 1 1 2 2 3 3 3 3 4 5 4 4 4 4 4 4 4 4 3 3 3 3 2 1 2 2 1 1 2 2 2 1 1 0 1 1 1 1 1 2 3 3 3 4 4 4 4 4 5 5 5 4 5 5 6 7 8 7 6 6 8 12 13 12 10 9 9 8 9 8 7 8 8 7 8 13 16 11 3 2 2 2 3 3 3 3
2 2 2 3 3 3 3 2 2 4 5 5 5 5 4 3 3 4 5 4 4 3 3 1 1 1 2 1 1 1 1 1 1 1 1 1 1 1 1 2 4 4 3 3 5 5 4 4 4 4 5 5 4 4 5 6 7 8 9 8 6 7 11 13 13 12 11 10 10 10 9 9 9 9 9 12 17 19 12 3 2 3 3 4 4 4 4
2 2 2 3 4 4 4 4 4 4 5 5 5 4 3 3 3 4 5 5 3 2 3 2 1 1 1 1 1 1 1 1 1 1 1 1 1 2 3 4 4 4 3 4 5 4 4 4 5 5 5 5 4 4 5 6 6 8 10 9 8 9 11 13 13 14 13 11 10 11 12 13 13 11 11 12 13 13 9 3 3 3 4 5 4 4 5
Wind_Direction
5 4 4 3 4 4 4 6 6 3 360 360 2 1 13 45 286 313 5 353 241 75 27 310 347 296 264 288 297 306 318 329 350 355 356 358 351 354 14 17 359 332 350 354 354 2 319 274 342 316 307 9 24 3 356 352 356 6 335 269 226 181 128 171 250 301 297 292 286 270 268 230 215 263 234 168 171 163 162 188 182 119 130 107 73 79 269
6 6 5 4 5 5 5 7 8 7 3 358 358 4 71 349 264 282 356 360 25 84 14 331 348 317 311 351 340 327 338 349 347 351 8 10 355 355 8 10 6 351 344 331 308 334 317 322 30 8 330 354 11 3 353 349 7 16 350 337 283 241 195 132 80 343 337 342 338 329 339 359 249 264 234 183 191 173 150 138 90 89 184 147 110 171 252
6 7 7 6 6 6 6 7 9 10 5 357 357 9 236 331 298 255 337 1 36 80 352 8 354 328 342 355 341 336 334 338 345 360 27 22 2 359 20 19 16 6 358 347 330 347 3 2 19 14 344 336 3 2 346 344 6 4 358 359 335 257 186 125 132 168 231 264 261 268 325 322 289 293 295 258 199 189 189 121 79 51 206 155 137 189 247
6 8 9 9 8 7 7 8 10 13 7 358 356 8 0 359 19 323 323 359 32 27 322 27 13 337 345 337 322 332 325 329 360 17 32 17 3 22 40 24 16 12 7 353 336 347 359 13 16 6 351 336 352 356 337 337 2 6 6 3 348 295 0 106 144 157 188 192 213 231 254 293 289 300 308 309 270 235 150 112 141 185 174 175 186 171 173
6 9 11 11 10 9 9 9 11 15 12 4 360 12 32 39 25 8 340 329 0 359 352 14 3 329 329 318 313 347 353 355 5 16 24 6 0 23 53 35 24 8 0 351 331 334 342 20 19 353 342 327 323 352 342 340 4 10 10 1 354 22 336 319 145 171 195 183 201 232 280 275 276 293 299 300 303 329 60 137 214 165 137 209 226 163 160
6 9 13 14 12 10 11 11 12 16 17 20 32 50 18 36 152 16 24 288 328 355 328 334 337 326 324 337 2 11 18 17 6 359 2 10 14 19 27 23 18 2 358 356 330 331 345 13 3 345 346 340 337 353 350 351 9 10 5 1 5 350 293 311 308 269 239 197 187 164 64 305 302 317 305 304 318 336 337 257 215 161 164 213 194 172 176
5 9 14 16 13 12 12 12 14 16 22 39 53 54 353 30 10 345 24 334 252 254 289 302 317 330 337 2 13 17 26 22 5 347 349 7 22 24 6 357 357 351 356 4 340 343 354 349 341 346 350 343 341 348 341 354 13 6 353 357 8 343 306 335 329 300 281 284 255 108 60 337 328 318 310 318 323 326 328 309 219 170 214 201 170 182 192
5 8 14 17 16 14 13 13 16 16 21 42 55 49 9 25 346 334 358 325 284 264 298 316 332 359 8 16 10 13 24 20 2 346 3 6 4 12 359 340 339 337 339 351 357 360 352 330 326 340 342 340 350 347 336 343 350 352 348 346 1 354 319 334 342 325 303 310 334 45 34 348 319 311 314 321 321 336 7 2 10 15 312 164 158 179 210
5 8 14 17 18 17 15 15 18 19 24 41 58 37 11 357 301 333 350 305 324 328 325 343 9 23 20 18 5 7 17 14 356 335 7 14 354 354 345 330 326 324 335 356 351 344 337 319 314 320 316 310 311 289 317 336 331 336 343 326 342 355 319 327 1 349 305 305 328 353 9 19 356 322 314 316 323 2 50 40 31 14 343 72 129 166 215
5 8 13 16 19 20 18 18 20 22 31 44 60 17 7 360 330 355 16 259 332 350 336 354 26 37 15 5 359 2 5 5 2 346 340 358 356 351 343 332 326 330 355 356 335 319 310 300 295 299 291 273 256 248 252 285 297 306 325 314 307 9 332 323 352 340 303 300 308 322 358 12 351 291 288 295 335 90 70 42 32 20 30 142 155 201 217
6 8 11 14 19 21 21 23 24 27 34 45 56 25 9 4 325 337 27 345 326 350 5 15 31 24 2 359 357 356 354 353 358 351 319 336 353 350 346 348 351 353 346 329 310 299 293 280 272 288 294 289 293 298 292 285 257 227 245 280 263 267 313 304 298 297 294 300 312 334 346 290 251 249 321 40 133 110 85 46 6 2 5 162 222 247 209
6 7 9 12 17 20 22 24 28 34 41 46 52 35 14 8 338 314 48 57 300 341 23 9 0 359 358 3 358 348 349 347 346 348 337 340 348 342 348 9 10 341 320 313 310 311 307 296 297 307 302 298 305 309 307 306 294 239 205 210 239 250 246 268 267 248 278 303 333 354 247 238 229 62 53 75 116 108 97 73 16 3 357 351 322 279 204
6 7 9 11 13 18 23 25 28 36 43 45 48 37 18 16 26 35 54 76 278 324 0 324 331 354 359 2 355 344 349 351 347 355 0 351 342 337 356 23 358 315 312 314 316 323 327 333 337 324 312 319 316 308 312 320 323 311 244 211 213 212 186 204 247 245 272 317 332 229 243 255 240 70 58 62 78 79 80 54 17 358 350 350 331 300 206
5 6 8 9 10 15 19 23 27 33 39 43 46 39 26 27 39 28 9 66 277 286 307 316 331 352 356 353 349 345 351 354 349 349 351 344 334 332 349 6 335 314 314 316 318 337 355 345 345 339 333 342 339 320 326 330 333 342 338 262 221 204 181 174 222 237 226 274 274 249 279 292 300 54 38 30 307 289 119 86 11 341 347 351 338 337 19
5 5 7 7 7 10 15 21 25 28 35 41 48 47 34 27 29 25 13 72 315 291 347 29 341 340 338 335 346 352 347 347 341 330 332 329 320 322 339 345 332 320 312 307 310 353 10 344 352 346 334 347 345 308 321 323 316 3 17 359 323 236 187 175 192 229 166 191 281 312 325 273 261 342 327 317 302 290 87 96 21 334 348 346 359 28 26
3 3 5 6 6 6 11 19 23 23 27 36 50 54 38 24 22 18 4 103 64 294 338 23 343 319 304 311 348 359 335 327 331 327 333 332 321 325 339 336 326 320 317 313 289 25 24 356 328 311 277 272 283 269 297 334 315 334 24 12 1 358 41 144 156 211 142 132 246 287 242 241 282 332 323 322 317 305 57 75 355 319 339 340 6 41 33
1 2 4 5 5 6 8 12 18 20 23 29 47 52 41 30 22 14 8 105 47 266 255 17 6 328 326 346 337 331 315 325 345 349 322 318 322 339 344 332 322 330 348 356 2 42 45 25 330 315 265 275 300 271 296 344 323 323 351 2 5 5 9 53 98 180 157 132 188 267 240 258 328 337 324 316 312 304 107 104 272 293 326 335 5 35 35
357 0 2 4 5 6 6 5 9 17 20 28 59 65 48 38 27 20 30 75 359 264 260 0 2 286 324 353 305 288 332 348 352 339 295 305 325 335 332 328 333 346 355 6 18 30 44 19 347 336 286 312 345 345 314 330 321 318 333 346 355 357 353 18 49 72 106 120 145 272 273 287 328 333 321 312 317 353 118 168 221 269 320 333 12 25 25
351 356 359 3 3 3 3 2 4 13 18 23 49 74 53 44 36 31 34 52 53 253 290 322 320 244 322 355 324 310 349 346 339 3 344 329 307 296 308 330 1 349 347 13 18 7 38 20 339 338 350 334 348 13 310 315 312 314 328 346 348 347 344 354 32 29 0 96 119 319 266 286 330 333 329 332 358 75 153 226 227 218 332 2 24 22 13
345 350 354 359 359 359 1 360 1 8 15 18 20 22 32 41 39 35 34 30 324 280 288 293 263 235 351 11 317 306 343 346 327 340 326 278 283 331 356 351 345 342 347 14 12 356 31 20 325 346 28 320 292 69 334 309 292 289 309 342 331 338 347 328 334 19 354 36 70 82 231 291 342 349 354 12 30 269 258 286 306 308 54 57 34 16 13
336 340 346 353 354 354 356 358 0 3 6 11 11 2 1 29 37 32 18 357 319 268 285 287 274 286 296 288 273 270 261 248 255 265 267 268 279 52 65 266 277 338 350 356 6 357 11 5 314 338 4 307 295 358 342 319 302 288 285 77 353 342 63 307 285 327 50 112 147 201 216 272 343 15 34 359 341 311 298 322 339 338 13 56 38 12 12
321 327 336 344 348 351 351 352 356 356 357 3 7 3 358 7 28 22 355 331 271 241 268 281 286 288 287 284 279 272 261 256 256 256 259 294 295 197 153 222 270 282 318 16 34 352 344 355 328 326 321 298 315 326 312 301 297 307 344 47 257 233 178 184 245 281 247 206 229 240 241 298 342 32 46 325 321 337 347 1 14 0 2 12 21 14 4
307 315 327 336 341 344 344 344 348 351 353 357 1 357 343 337 353 5 350 328 280 267 272 276 284 288 287 295 307 307 298 277 261 252 245 244 287 294 179 160 267 284 17 98 142 182 256 262 269 296 279 272 316 326 308 281 252 301 336 321 258 249 165 158 201 277 291 280 269 273 311 342 327 337 349 331 324 336 347 355 358 355 354 353 0 6 1
304 305 317 328 334 337 337 339 344 347 349 351 352 344 335 333 346 354 348 338 319 311 294 285 297 289 298 324 324 324 326 303 266 256 251 244 250 300 296 220 204 17 321 265 227 148 160 249 263 295 273 273 303 311 293 280 275 305 338 305 291 326 27 106 215 253 292 295 288 291 309 294 286 303 318 325 328 323 327 339 328 323 344 356 348 352 2
309 304 308 317 324 328 331 337 343 346 345 346 344 335 332 336 6 360 347 334 317 330 324 312 293 282 322 327 321 316 320 318 296 273 260 248 232 224 235 230 201 185 224 246 344 46 16 260 246 291 278 274 282 270 226 245 266 283 315 290 280 308 3 312 255 217 199 241 261 275 279 264 247 248 283 296 315 316 305 294 288 302 344 11 349 351 9
309 302 298 307 315 320 327 336 343 344 341 342 341 333 328 329 356 357 334 315 284 266 286 285 281 300 320 323 315 310 317 319 311 292 270 250 231 224 227 221 205 205 192 159 93 111 196 204 194 236 257 264 270 259 232 240 257 268 269 260 242 245 270 254 254 271 274 273 280 303 314 295 268 185 222 252 277 303 297 294 304 322 344 357 351 353 14
304 297 292 298 306 314 323 332 338 339 339 340 338 329 319 313 325 354 326 321 308 273 304 268 283 306 312 309 305 313 320 317 309 301 288 257 227 221 220 201 186 198 154 105 12 160 159 209 237 220 233 259 276 276 260 252 255 262 265 259 215 216 244 239 261 298 288 271 271 286 306 294 287 274 266 261 252 249 252 267 297 314 325 349 358 344 344
297 294 289 289 297 311 321 329 333 334 336 337 336 332 319 312 28 346 315 304 274 252 292 274 286 302 305 302 308 318 324 323 318 312 301 265 220 209 208 195 177 169 144 142 268 155 173 234 237 229 244 253 272 285 282 281 279 255 256 259 224 206 216 198 191 235 254 256 255 230 211 259 271 269 270 266 257 254 252 250 264 282 301 8 8 327 311
294 288 283 286 299 310 317 323 327 331 333 337 343 12 88 81 67 77 36 280 246 252 295 296 287 290 299 306 309 315 325 329 322 309 297 269 216 202 202 191 177 177 158 148 158 183 210 223 213 229 230 166 172 281 281 288 282 256 246 255 246 231 236 218 204 218 256 267 260 221 200 239 256 256 259 259 250 252 265 264 251 251 257 227 240 264 260
288 283 283 292 303 309 313 318 323 326 330 337 347 24 84 79 103 136 149 147 25 358 331 299 292 291 298 299 296 302 318 323 317 304 290 262 219 205 203 190 178 178 160 141 158 185 212 233 228 242 217 160 161 262 251 248 270 257 252 264 261 249 255 244 220 216 244 259 257 229 215 237 255 259 262 262 255 249 259 263 251 245 238 214 201 215 233
280 277 285 294 303 309 312 315 317 320 327 338 354 31 91 129 175 180 184 207 354 1 354 232 273 292 294 279 273 295 307 307 302 297 286 258 220 207 203 196 185 176 173 174 182 187 199 206 216 257 240 171 172 234 230 248 278 271 262 268 263 251 257 262 249 240 246 254 269 275 262 258 272 285 282 279 276 268 261 259 258 256 255 249 233 228 241
268 270 286 297 307 312 311 312 317 317 316 318 305 273 261 262 250 232 223 274 327 346 350 272 296 298 293 292 294 299 298 290 285 298 306 299 127 193 205 199 185 181 178 163 159 206 213 187 195 245 241 163 147 235 227 220 257 265 267 270 269 262 264 269 267 263 263 264 275 293 299 299 299 294 289 293 296 290 275 258 254 256 267 288 285 266 257
262 277 295 304 310 311 307 310 314 310 307 306 294 276 274 292 281 255 245 266 289 287 222 267 306 285 276 302 306 306 305 294 294 344 356 359 34 42 234 226 176 181 182 169 178 227 225 178 184 235 237 153 139 224 236 225 239 256 266 271 270 273 275 273 271 272 279 282 255 240 264 274 280 285 289 300 310 304 291 279 279 292 315 317 297 283 273
267 286 300 305 307 307 305 306 307 306 307 306 292 277 301 332 310 258 227 229 245 253 241 258 295 275 284 301 304 318 334 337 334 355 345 333 7 74 255 307 355 238 204 199 202 239 244 200 188 200 208 162 152 210 249 251 248 256 267 269 269 286 298 298 296 297 304 309 297 264 254 259 275 294 303 310 315 314 311 309 309 325 335 316 293 286 287
278 293 302 306 307 304 301 300 298 298 297 290 283 297 334 321 309 284 231 209 177 106 272 257 227 276 315 323 292 315 335 336 310 277 299 313 342 7 205 275 331 260 227 213 200 216 227 213 194 199 200 163 167 223 246 254 259 271 284 287 299 323 325 313 307 304 305 306 299 291 291 294 297 298 297 295 297 304 310 306 295 113 23 299 287 284 285
283 295 304 310 309 302 301 297 279 261 263 273 281 298 310 311 317 288 236 222 214 215 252 315 262 248 305 316 280 312 336 333 296 304 324 306 325 351 75 93 291 259 238 219 223 232 231 194 172 225 226 193 217 243 245 261 292 301 300 293 296 301 290 281 285 292 296 297 294 292 298 302 296 287 283 285 292 302 303 294 288 274 220 243 254 265 272
283 296 306 314 313 300 293 275 237 248 302 308 292 287 290 290 242 210 217 221 229 223 211 308 274 235 226 259 263 308 337 322 292 322 343 315 288 309 36 91 258 268 301 296 247 238 244 212 182 225 235 227 241 276 5 356 309 297 295 292 289 287 280 280 286 292 295 295 293 292 295 295 289 286 289 298 307 317 315 303 290 278 262 249 245 251 255
292 304 310 319 326 313 265 222 220 302 323 315 299 289 286 173 155 205 213 199 212 210 188 223 257 235 199 234 259 289 313 310 319 324 305 256 301 312 6 81 229 283 326 290 248 224 332 318 217 225 251 280 323 343 263 276 279 280 289 293 289 287 288 288 291 294 293 292 291 292 294 294 293 291 290 290 291 292 293 290 280 266 246 221 217 229 244
305 314 310 293 250 267 309 315 305 314 316 307 282 258 208 156 177 240 211 180 200 206 190 224 244 214 183 214 259 270 248 241 303 307 274 269 356 323 323 345 331 53 336 287 276 30 28 298 255 237 273 318 328 283 263 273 283 285 287 286 284 287 288 285 282 278 273 272 275 275 273 277 284 286 282 279 279 278 278 279 270 247 218 208 220 233 249
308 309 293 252 250 288 301 305 308 313 314 293 191 180 188 184 183 170 163 192 228 205 189 212 229 208 194 206 246 265 239 228 242 261 251 262 302 178 210 308 331 73 294 278 286 43 91 260 278 280 274 284 286 280 285 296 291 285 286 290 292 292 289 284 282 275 267 267 270 267 261 260 267 273 275 273 273 274 276 276 262 234 219 226 240 248 257
333 318 292 292 300 302 303 303 302 303 305 190 206 248 212 220 234 216 189 233 249 220 194 201 221 224 210 202 213 250 255 248 233 176 196 279 311 17 137 255 177 81 263 255 260 15 54 265 301 295 268 270 279 286 298 302 294 294 298 297 296 294 291 288 285 280 276 276 274 270 269 265 260 262 265 261 259 264 267 268 262 248 243 247 255 263 270
309 303 300 302 301 300 301 302 284 217 165 17 315 289 237 232 249 249 204 219 248 247 204 200 220 240 228 200 194 224 255 263 269 96 113 277 276 249 240 237 101 91 249 245 282 36 1 309 307 281 267 276 288 294 302 304 298 299 301 298 296 297 295 292 291 289 285 280 271 269 272 266 260 265 267 261 258 257 253 252 256 259 260 263 268 274 276
275 283 293 302 301 290 285 290 201 164 80 63 67 315 301 280 256 254 242 228 259 287 240 214 236 276 266 228 210 227 252 259 176 112 179 235 224 224 285 310 188 222 245 238 70 38 309 289 281 273 279 296 303 303 304 300 296 300 302 298 296 298 298 296 295 294 292 288 280 275 270 263 261 272 278 275 267 258 255 264 273 268 262 266 278 282 277
293 282 273 284 281 196 110 322 274 172 160 160 149 195 283 270 249 272 274 249 234 252 239 229 250 291 279 262 258 269 263 274 47 91 256 273 257 167 254 251 235 244 315 30 66 237 229 224 251 274 295 306 305 303 304 301 301 307 308 304 303 306 308 309 306 300 297 295 288 277 270 271 278 289 304 307 290 262 258 281 293 278 265 281 293 284 275
330 306 117 1 325 354 87 356 297 243 219 223 201 198 226 236 236 251 247 225 207 247 277 279 293 291 279 276 295 327 235 334 16 306 243 325 11 276 235 238 258 315 346 327 289 286 273 257 271 290 300 301 300 304 306 302 300 304 310 311 311 312 312 314 312 304 296 293 287 280 282 297 300 309 324 323 311 291 279 292 310 332 319 309 294 280 274
312 261 112 79 303 276 128 167 270 235 195 216 217 211 224 241 251 259 257 232 209 327 326 333 341 319 298 286 290 315 105 91 330 261 199 90 15 254 232 152 12 345 333 319 300 282 265 261 272 285 289 291 295 298 297 298 301 302 302 304 307 310 313 313 308 301 296 294 289 286 307 340 341 343 339 330 325 326 331 316 312 9 335 305 287 277 274
278 290 78 111 262 278 233 213 230 233 237 248 248 241 244 256 268 280 291 322 28 358 347 341 319 304 294 278 277 292 137 137 231 270 178 117 233 265 296 61 22 298 310 307 285 264 256 257 260 265 273 282 290 292 295 303 307 302 299 300 302 308 312 310 303 302 309 312 309 311 336 358 4 7 356 336 328 335 356 2 343 351 332 307 295 279 271
264 296 135 155 217 241 225 227 259 277 274 275 274 268 268 291 316 303 289 301 50 49 27 356 326 317 309 275 260 271 266 169 259 274 249 151 262 308 350 5 269 240 224 243 249 259 264 259 253 255 263 274 285 290 295 303 305 306 313 315 310 312 317 317 314 317 324 329 334 333 338 3 19 17 4 341 326 326 342 348 332 338 348 332 319 270 241
273 290 230 224 245 248 244 267 313 305 283 279 286 290 308 351 342 300 288 322 16 346 286 282 312 302 281 264 272 284 267 227 235 249 224 91 53 282 291 296 279 258 226 226 239 255 258 249 252 264 269 273 284 288 289 297 303 306 307 308 312 322 325 317 312 322 334 344 348 335 333 12 33 22 7 349 331 321 322 336 331 329 356 357 340 310 242
244 248 241 236 257 282 291 303 307 294 294 311 321 316 328 345 333 311 316 340 339 324 329 352 354 300 280 288 344 326 277 253 257 264 179 164 209 212 199 255 249 235 226 230 244 255 253 242 244 259 267 271 283 289 292 299 304 302 301 309 334 341 329 315 309 316 326 331 332 328 333 1 16 12 12 1 334 315 305 314 35 6 16 40 25 0 330
245 244 232 223 227 253 288 298 280 279 292 303 299 293 298 305 294 301 322 336 342 346 344 319 260 315 345 0 346 304 284 278 289 277 224 210 221 205 195 231 237 231 230 244 253 258 255 241 234 249 268 276 280 281 287 297 302 301 305 321 344 338 319 312 312 316 320 327 337 339 339 347 353 0 13 4 336 313 297 286 59 39 42 53 43 19 358
226 232 248 245 236 238 253 260 262 266 269 266 264 267 277 271 267 289 321 341 341 308 284 254 205 97 24 312 276 295 317 311 286 270 254 244 235 217 216 230 239 239 242 257 268 270 255 237 233 243 256 265 271 277 285 297 302 300 307 327 347 341 327 325 326 321 316 320 335 345 348 351 356 7 19 6 333 304 287 299 15 24 35 36 33 35 37